Springfield Branson National Airport
KSGF : now visible

Airfield :











YOU CAN JOIN US ON...

 
LOGIN :

Register | Disclaimer

   EN    FR    IT 

 









Legend :    VFR   Marginal VFR   IFR   Intensive IFR   Very Intensive IFR
Visi :
Ceiling :
>= 8 km
>= 3000ft
5 to 8 km
1000 to 3000 ft
1500m to 5 km
500 to 1000 ft
800 to 1500m
200 to 500 ft
< 800m
< 200 ft
Symbols :   Thunderstorms  Fog  Heavy snow  Heavy precipitations  Wind > 20 kt






- Airport Elevation : 1268 ft
- IATA code : SGF


KSGF - Springfield Branson National

CURRENT METAR :
  • 110252Z 25008KT 10SM CLR 10/05 A2968 RMK AO2 SLP050 T01000050 53002

EXPIRED METARs :
  • 110152Z 26006KT 10SM BKN110 11/05 A2968 RMK AO2 SLP049 T01110050
  • 110052Z 26007KT 10SM FEW095 12/06 A2967 RMK AO2 SLP045 T01170056

TAF KSGF
Valid from the 11 at 00:00 until the 12 at 00:00 UTC


102320Z 1100/1124 29010G20KT P6SM BKN045
FM110300 28009KT P6SM SCT120
FM111000 25006KT P6SM FEW250
FM111800 25012G21KT P6SM SKC
FM112300 24011KT P6SM SKC
KZKC FIR / North America



MET'MAP, your aeronautical weather chart ! - Copyright ORBIFLY December 2007 - Disclaimer

ORBIFLY MET'MAP TEAM :

Programming & Development : Alexandra Zaïnal
Concept & original design : Baudouin d'Aumeries
Assistance for programming : Marc-Olivier Méhu
Technical & hardware support : Manuel Goepfert

Contact : metmap@orbifly.com




SOURCES & CREDITS :

   NOAA       Earth
Advisory